Flag for U.S.A. Weather past 2 weeks in Glendale, Arizona, U.S.A.

Now
94 °F

Clear.


Feels Like: 91 °F
Forecast: 88 / 106 °F
Wind: No wind

Location: Phoenix-Deer Valley Municipal Airport

Current Time: Jul 25, 2014 at 12:26:25 AM

Latest Report: Jul 24, 2014 at 11:53 PM


Visibility: 10 mi

Pressure: 29.72 "Hg

Humidity: 25%

Dew point: 53 °F

Location of GlendaleLocation

Historic Weather in Glendale — Graph

°F

Glendale temperature yesterday

Maximum temperature yesterday: 110 °F (at 3:53 PM)
Minimum temperature yesterday: 91 °F (at 3:53 AM)
Average temperature yesterday: 101 °F

Past Weeks' High & Low Weather Summary

 TemperatureHumidityPressure
High110 °F (Jul 22, 4:53 PM)67% (Jul 13, 10:53 PM)29.95 "Hg (Jul 13, 10:53 PM)
Low76 °F (Jul 21, 5:53 AM)8% (Jul 17, 1:53 PM)29.63 "Hg (Jul 24, 4:53 PM)
Average93 °F25%29.80 "Hg
* Reported Jul 9 10:53 PM — Jul 24 10:53 PM, Glendale, Weather by CustomWeather, © 2014

Note: Actual official high and low records may vary slightly from our data, if they occured in-between our weather recording intervals... More about our weather records

Advertising

Glendale weather history for previous 24 hours

 ConditionsComfort  
Time TempWeatherWind HumidityBarometerVisibility
10:53 PM
Jul 24
97 °FClear.6 mph23%29.70 "Hg9 mi
9:53 PM99 °FClear.8 mph24%29.69 "Hg10 mi
8:53 PM101 °FClear.15 mph22%29.69 "Hg10 mi
7:53 PM106 °FClear.3 mph10%29.65 "Hg10 mi
6:53 PM108 °FSunny.10 mph9%29.64 "Hg10 mi
5:53 PM109 °FSunny.7 mph9%29.63 "Hg10 mi
4:53 PM110 °FSunny.9 mph9%29.63 "Hg10 mi
3:53 PM110 °FSunny.7 mph9%29.65 "Hg10 mi
2:53 PM109 °FSunny.7 mph11%29.68 "Hg10 mi
1:58 PM109 °FSunny.8 mph10%29.80 "Hg10 mi
12:53 PM108 °FSunny.8 mph11%29.73 "Hg10 mi
11:53 AM107 °FSunny.12 mph14%29.75 "Hg10 mi
10:53 AM105 °FSunny.12 mph15%29.77 "Hg10 mi
9:53 AM103 °FSunny.6 mph17%29.78 "Hg10 mi
8:53 AM100 °FSunny.12 mph22%29.80 "Hg10 mi
7:53 AM95 °FSunny.6 mph31%29.80 "Hg10 mi
6:53 AM91 °FSunny.3 mph37%29.80 "Hg10 mi
5:53 AM91 °FSunny.No wind37%29.78 "Hg10 mi
4:53 AM92 °FClear.3 mph36%29.77 "Hg10 mi
3:53 AM91 °FPassing clouds.9 mph37%29.77 "Hg10 mi
2:53 AM92 °FClear.10 mph35%29.78 "Hg10 mi
1:53 AM94 °FClear.12 mph30%29.78 "Hg10 mi
12:53 AM93 °FClear.13 mph33%29.79 "Hg10 mi
Weather by CustomWeather, © 2014

See weather overviewHow to use our weather pages